This is the latest recevied weather packets stored in our database for station/object Hoechsten. If no packets are shown the sender has not sent any weather packets the latest 10 day(s).
| Time | Temp. | Humidity | Pressure | Rain* | Wind** | Luminosity | Snow |
|---|---|---|---|---|---|---|---|
| 1778076131 | 9.44° C | 75% | 1003.8 hPa | 0.51 mm | - | - | - |
| 1778074331 | 12.22° C | 76% | 1003.3 hPa | 0 mm | - | - | - |
| 1778072531 | 12.22° C | 76% | 1003.2 hPa | 0 mm | - | - | - |
| 1778070730 | 12.22° C | 76% | 1003 hPa | 0 mm | - | - | - |
| 1778068930 | 12.78° C | 76% | 1002.8 hPa | 0 mm | - | - | - |
| 1778067137 | 13.33° C | 75% | 1002.7 hPa | 0 mm | - | - | - |
| 1778065330 | 13.33° C | 76% | 1003 hPa | 0 mm | - | - | - |
| 1778061734 | 12.22° C | 76% | 1003.3 hPa | 0 mm | - | - | - |
| 1778059931 | 11.67° C | 76% | 1003.2 hPa | 0 mm | - | - | - |
| 1778058131 | 11.67° C | 76% | 1003.5 hPa | 0 mm | - | - | - |
| 1778056331 | 12.22° C | 75% | 1003.5 hPa | 0 mm | - | - | - |
| 1778054532 | 11.67° C | 75% | 1003.3 hPa | 0 mm | - | - | - |
| 1778052731 | 11.67° C | 75% | 1003.4 hPa | 0 mm | - | - | - |
| 1778050932 | 10.56° C | 75% | 1003.4 hPa | 0 mm | - | - | - |
| 1778049131 | 10.56° C | 74% | 1003.6 hPa | 0 mm | - | - | - |
| 1778047331 | 10° C | 74% | 1003.3 hPa | 0 mm | - | - | - |
| 1778045531 | 9.44° C | 73% | 1003.5 hPa | 0 mm | - | - | - |
| 1778043731 | 9.44° C | 72% | 1003.6 hPa | 0 mm | - | - | - |
| 1778041932 | 8.89° C | 71% | 1003.7 hPa | 0 mm | - | - | - |
| 1778040131 | 8.89° C | 69% | 1004.1 hPa | 0 mm | - | - | - |
| 1778038331 | 8.89° C | 69% | 1004.4 hPa | 0 mm | - | - | - |
| 1778036532 | 8.89° C | 70% | 1004.8 hPa | 0 mm | - | - | - |
| 1778034732 | 8.89° C | 72% | 1004.7 hPa | 0 mm | - | - | - |
| 1778032932 | 9.44° C | 72% | 1004.9 hPa | 0 mm | - | - | - |
| 1778031131 | 9.44° C | 70% | 1005.1 hPa | 0 mm | - | - | - |
* Rain since midnight (hover to see other rain measurements)
** Current wind speed in m/s (hover to see current wind gust speed)